Flag for India Weather past 2 weeks in Kolkata, West Bengal, India

Now
70 °F

Fog.


Feels Like: 70 °F
Forecast: 70 / 89 °F
Wind: No wind

Location: Calcutta / Dum Dum

Current Time: Mar 1, 2015 at 6:12:28 AM

Latest Report: Mar 1, 2015 at 5:50 AM


Visibility: 1 mi

Pressure: 29.89 "Hg

Humidity: 94%

Dew point: 68 °F

Location of KolkataLocation

Historic Weather in Kolkata — Graph

°F

Kolkata temperature yesterday

Maximum temperature yesterday: 91 °F (at 2:20 PM)
Minimum temperature yesterday: 75 °F (at 4:50 AM)
Average temperature yesterday: 81 °F

Past Weeks' High & Low Weather Summary

 TemperatureHumidityPressure
High93 °F (Feb 21, 5:20 PM)100% (Feb 15, 4:20 AM)30.01 "Hg (Feb 15, 4:20 AM)
Low59 °F (Feb 14, 5:50 AM)32% (Feb 22, 3:50 PM)29.68 "Hg (Feb 26, 6:20 PM)
Average78 °F71%29.86 "Hg
* Reported Feb 14 4:50 AM — Mar 1 4:50 AM, Kolkata, Weather by CustomWeather, © 2015

Note: Actual official high and low records may vary slightly from our data, if they occured in-between our weather recording intervals... More about our weather records

Advertising

Kolkata weather history for previous 24 hours

 ConditionsComfort  
Time TempWeatherWind HumidityBarometerVisibility
4:50 AM
Sun, Mar 1
70 °FFog.3 mph94%29.83 "Hg1 mi
4:20 AM72 °FFog.3 mph94%29.83 "Hg1 mi
3:50 AM72 °FHaze.5 mph94%29.83 "Hg1 mi
3:20 AM72 °FHaze.6 mph94%29.83 "Hg2 mi
2:50 AM72 °FHaze.5 mph94%29.83 "Hg2 mi
2:20 AM72 °FHaze.5 mph94%29.83 "Hg2 mi
1:50 AM72 °FHaze.5 mph94%29.83 "Hg2 mi
1:20 AM72 °FHaze.6 mph94%29.86 "Hg2 mi
12:50 AM73 °FHaze.6 mph89%29.86 "Hg2 mi
12:20 AM73 °FHaze.5 mph89%29.89 "Hg2 mi
11:50 PM
Sat, Feb 28
75 °FHaze.6 mph83%29.89 "Hg2 mi
11:20 PM77 °FHaze.6 mph79%29.89 "Hg2 mi
10:50 PM77 °FHaze.5 mph79%29.89 "Hg2 mi
10:20 PM77 °FHaze.5 mph79%29.89 "Hg2 mi
9:50 PM77 °FHaze.8 mph79%29.89 "Hg2 mi
9:20 PM77 °FHaze.12 mph74%29.89 "Hg2 mi
8:50 PM79 °FHaze.12 mph70%29.86 "Hg2 mi
8:20 PM79 °FHaze.6 mph70%29.86 "Hg2 mi
7:20 PM81 °FHaze.7 mph66%29.86 "Hg2 mi
6:50 PM82 °FHaze.8 mph62%29.83 "Hg2 mi
6:20 PM84 °FHaze.9 mph58%29.83 "Hg2 mi
5:50 PM84 °FHaze.12 mph55%29.83 "Hg2 mi
5:20 PM86 °FHaze.9 mph52%29.80 "Hg2 mi
4:50 PM88 °FHaze.8 mph49%29.80 "Hg2 mi
4:20 PM88 °FHaze.8 mph49%29.80 "Hg2 mi
3:50 PM90 °FHaze.8 mph43%29.80 "Hg2 mi
3:20 PM91 °FHaze.8 mph41%29.80 "Hg2 mi
2:50 PM91 °FHaze.9 mph41%29.80 "Hg2 mi
2:20 PM91 °FHaze.8 mph44%29.83 "Hg2 mi
1:50 PM90 °FHaze.9 mph49%29.83 "Hg2 mi
1:20 PM90 °FHaze.7 mph46%29.86 "Hg2 mi
12:50 PM88 °FHaze.7 mph52%29.89 "Hg2 mi
12:20 PM88 °FHaze.8 mph52%29.89 "Hg2 mi
11:50 AM86 °FHaze.8 mph59%29.92 "Hg2 mi
11:20 AM86 °FHaze.6 mph59%29.92 "Hg2 mi
10:50 AM86 °FHaze.6 mph59%29.95 "Hg2 mi
10:20 AM84 °FHaze.7 mph62%29.95 "Hg2 mi
9:20 AM81 °FHaze.5 mph70%29.95 "Hg2 mi
8:50 AM81 °FHaze.5 mph70%29.95 "Hg1 mi
8:20 AM79 °FHaze.6 mph74%29.92 "Hg1 mi
7:50 AM77 °FFog.9 mph79%29.89 "Hg1 mi
7:20 AM77 °FFog.6 mph83%29.89 "Hg1 mi
6:50 AM75 °FFog.7 mph89%29.86 "Hg1 mi
6:20 AM75 °FFog.7 mph89%29.86 "Hg1 mi
Weather by CustomWeather, © 2015

See weather overviewHow to use our weather pages